Location: Unspecified
(0.0000°N, 0.0000°E)
Time: 16:23:24
(UTC+00:00)

Courier 1B Rocket - Pass Details

Date: 20 December 2018
Orbit: 920 x 1202 km, 28.2° (Epoch: 21 March)

Event Time Altitude Azimuth Distance (km) Brightness Sun altitude
Rises 04:52:03 0° 263° (W) 3,602 - -15.0°
Reaches altitude 10° 04:55:05 10° 274° (W) 2,630 - -14.3°
Exits shadow 04:57:14 19° 290° (WNW) 2,052 6.0 -13.8°
Maximum altitude 05:00:21 28° 332° (NNW) 1,651 5.8 -13.1°
Drops below altitude 10° 05:05:35 10° 29° (NNE) 2,602 7.3 -11.9°
Sets 05:08:35 0° 41° (NE) 3,557 8.2 -11.2°
